Time,TemperatureF,DewpointF,PressureIn,WindDirection,WindDirectionDegrees,WindSpeedMPH,WindSpeedGustMPH,Humidity,HourlyPrecipIn,Conditions,Clouds,dailyrainin,SoftwareType,DateUTC
2013-05-30 00:13:00,71.7,63.0,29.89,South,173,7.0,9.0,75,0.01,,,0.00,weatherlink.com 1.10,2013-05-30 05:13:00,
2013-05-30 00:28:00,71.7,64.0,29.89,South,181,5.0,9.0,76,0.00,,,0.00,weatherlink.com 1.10,2013-05-30 05:28:00,
2013-05-30 00:43:00,71.8,64.0,29.90,South,182,5.0,10.0,77,0.00,,,0.00,weatherlink.com 1.10,2013-05-30 05:43:00,
2013-05-30 00:58:00,71.5,64.0,29.89,South,182,5.0,10.0,78,0.00,,,0.00,weatherlink.com 1.10,2013-05-30 05:58:00,
2013-05-30 01:13:00,71.3,65.0,29.89,South,172,6.0,9.0,79,0.00,,,0.00,weatherlink.com 1.10,2013-05-30 06:13:00,
2013-05-30 01:28:00,71.3,65.0,29.89,South,173,5.0,10.0,80,0.00,,,0.00,weatherlink.com 1.10,2013-05-30 06:28:00,
2013-05-30 01:43:00,71.0,65.0,29.88,South,177,5.0,8.0,80,0.00,,,0.00,weatherlink.com 1.10,2013-05-30 06:43:00,
2013-05-30 01:58:00,70.5,65.0,29.88,South,176,5.0,8.0,82,0.00,,,0.00,weatherlink.com 1.10,2013-05-30 06:58:00,
2013-05-30 02:13:00,70.3,65.0,29.87,South,184,5.0,10.0,82,0.00,,,0.00,weatherlink.com 1.10,2013-05-30 07:13:00,
2013-05-30 02:28:00,70.3,65.0,29.86,SSE,167,5.0,10.0,82,0.00,,,0.00,weatherlink.com 1.10,2013-05-30 07:28:00,
2013-05-30 02:43:00,70.2,65.0,29.87,South,169,9.0,11.0,82,0.00,,,0.00,weatherlink.com 1.10,2013-05-30 07:43:00,
2013-05-30 02:58:00,70.0,65.0,29.86,South,170,7.0,10.0,83,0.00,,,0.00,weatherlink.com 1.10,2013-05-30 07:58:00,
2013-05-30 03:13:00,69.6,65.0,29.87,SSW,194,5.0,10.0,84,0.00,,,0.00,weatherlink.com 1.10,2013-05-30 08:13:00,
2013-05-30 03:28:00,69.6,65.0,29.87,South,180,4.0,9.0,84,0.00,,,0.00,weatherlink.com 1.10,2013-05-30 08:28:00,
2013-05-30 03:43:00,69.6,65.0,29.87,SSE,163,6.0,9.0,85,0.00,,,0.00,weatherlink.com 1.10,2013-05-30 08:43:00,
2013-05-30 03:58:00,69.5,65.0,29.88,South,186,5.0,8.0,85,0.00,,,0.00,weatherlink.com 1.10,2013-05-30 08:58:00,
2013-05-30 04:13:00,69.8,65.0,29.88,South,185,4.0,9.0,85,0.00,,,0.00,weatherlink.com 1.10,2013-05-30 09:13:00,
2013-05-30 04:28:00,69.9,65.0,29.87,South,169,6.0,9.0,85,0.00,,,0.00,weatherlink.com 1.10,2013-05-30 09:28:00,
2013-05-30 04:43:00,70.1,65.0,29.88,South,185,3.0,11.0,85,0.00,,,0.00,weatherlink.com 1.10,2013-05-30 09:43:00,
2013-05-30 04:58:00,69.9,65.0,29.87,SSE,161,6.0,9.0,85,0.00,,,0.00,weatherlink.com 1.10,2013-05-30 09:58:00,
2013-05-30 05:13:00,69.9,65.0,29.87,South,182,5.0,9.0,85,0.00,,,0.00,weatherlink.com 1.10,2013-05-30 10:13:00,
2013-05-30 05:29:00,69.7,65.0,29.87,SSE,165,6.0,9.0,86,0.00,,,0.00,weatherlink.com 1.10,2013-05-30 10:29:00,
2013-05-30 05:44:00,69.6,65.0,29.87,SSE,165,6.0,10.0,86,0.00,,,0.00,weatherlink.com 1.10,2013-05-30 10:44:00,
2013-05-30 05:59:00,70.0,66.0,29.87,South,186,3.0,13.0,86,0.00,,,0.00,weatherlink.com 1.10,2013-05-30 10:59:00,
2013-05-30 06:14:00,70.1,66.0,29.87,South,187,8.0,13.0,86,0.00,,,0.00,weatherlink.com 1.10,2013-05-30 11:14:00,
2013-05-30 06:29:00,70.3,66.0,29.87,SSW,196,8.0,13.0,85,0.00,,,0.00,weatherlink.com 1.10,2013-05-30 11:29:00,
2013-05-30 06:44:00,70.8,66.0,29.87,South,184,9.0,15.0,85,0.00,,,0.00,weatherlink.com 1.10,2013-05-30 11:44:00,
2013-05-30 06:59:00,71.4,66.0,29.87,South,182,11.0,19.0,84,0.00,,,0.00,weatherlink.com 1.10,2013-05-30 11:59:00,
2013-05-30 07:14:00,71.9,67.0,29.87,SSW,207,6.0,19.0,84,0.00,,,0.00,weatherlink.com 1.10,2013-05-30 12:14:00,
2013-05-30 07:29:00,72.9,67.0,29.87,South,176,5.0,19.0,82,0.00,,,0.00,weatherlink.com 1.10,2013-05-30 12:29:00,
2013-05-30 07:44:00,73.6,68.0,29.87,South,190,8.0,20.0,82,0.00,,,0.00,weatherlink.com 1.10,2013-05-30 12:44:00,
2013-05-30 07:59:00,74.7,69.0,29.87,SSW,206,9.0,22.0,81,0.00,,,0.00,weatherlink.com 1.10,2013-05-30 12:59:00,
2013-05-30 08:14:00,75.7,69.0,29.87,SSW,193,11.0,21.0,80,0.00,,,0.00,weatherlink.com 1.10,2013-05-30 13:14:00,
2013-05-30 08:29:00,75.7,69.0,29.87,South,188,9.0,20.0,80,0.00,,,0.00,weatherlink.com 1.10,2013-05-30 13:29:00,
2013-05-30 08:44:00,75.9,69.0,29.87,SSW,192,14.0,18.0,80,0.00,,,0.00,weatherlink.com 1.10,2013-05-30 13:44:00,
2013-05-30 08:59:00,75.2,69.0,29.87,South,180,8.0,19.0,81,0.00,,,0.00,weatherlink.com 1.10,2013-05-30 13:59:00,
2013-05-30 09:14:00,76.1,70.0,29.87,SSW,196,11.0,18.0,81,0.00,,,0.00,weatherlink.com 1.10,2013-05-30 14:14:00,
2013-05-30 09:29:00,77.1,71.0,29.87,SSW,198,5.0,15.0,80,0.00,,,0.00,weatherlink.com 1.10,2013-05-30 14:29:00,
2013-05-30 09:44:00,78.5,71.0,29.86,SSE,161,10.0,19.0,78,0.00,,,0.00,weatherlink.com 1.10,2013-05-30 14:44:00,
2013-05-30 09:59:00,79.1,70.0,29.86,South,179,10.0,20.0,74,0.00,,,0.00,weatherlink.com 1.10,2013-05-30 14:59:00,
2013-05-30 10:14:00,77.8,70.0,29.86,South,190,8.0,24.0,77,0.00,,,0.00,weatherlink.com 1.10,2013-05-30 15:14:00,
2013-05-30 10:29:00,78.8,71.0,29.86,South,174,16.0,18.0,77,0.00,,,0.00,weatherlink.com 1.10,2013-05-30 15:29:00,
2013-05-30 10:44:00,78.9,71.0,29.85,South,179,12.0,20.0,76,0.00,,,0.00,weatherlink.com 1.10,2013-05-30 15:44:00,
2013-05-30 10:59:00,78.5,70.0,29.86,SSW,204,14.0,27.0,76,0.00,,,0.00,weatherlink.com 1.10,2013-05-30 15:59:00,
2013-05-30 11:14:00,79.1,71.0,29.86,SSE,163,9.0,21.0,75,0.00,,,0.00,weatherlink.com 1.10,2013-05-30 16:14:00,
2013-05-30 11:29:00,79.8,71.0,29.86,SSW,196,12.0,23.0,74,0.00,,,0.00,weatherlink.com 1.10,2013-05-30 16:29:00,
2013-05-30 11:44:00,79.7,71.0,29.86,SSW,198,10.0,24.0,74,0.00,,,0.00,weatherlink.com 1.10,2013-05-30 16:44:00,
2013-05-30 11:59:00,79.5,71.0,29.86,South,171,11.0,22.0,74,0.00,,,0.00,weatherlink.com 1.10,2013-05-30 16:59:00,
2013-05-30 12:14:00,78.8,71.0,29.86,SSE,168,11.0,21.0,76,0.00,,,0.00,weatherlink.com 1.10,2013-05-30 17:14:00,
2013-05-30 12:29:00,79.8,70.0,29.85,SSW,192,11.0,24.0,73,0.00,,,0.00,weatherlink.com 1.10,2013-05-30 17:29:00,
2013-05-30 12:44:00,80.5,72.0,29.86,South,182,10.0,29.0,74,0.00,,,0.00,weatherlink.com 1.10,2013-05-30 17:44:00,
2013-05-30 12:59:00,79.7,71.0,29.85,SSW,212,15.0,21.0,74,0.00,,,0.00,weatherlink.com 1.10,2013-05-30 17:59:00,
2013-05-30 13:14:00,80.9,71.0,29.85,South,187,13.0,24.0,71,0.00,,,0.00,weatherlink.com 1.10,2013-05-30 18:14:00,
2013-05-30 13:29:00,80.7,71.0,29.85,SW,214,18.0,25.0,71,0.00,,,0.00,weatherlink.com 1.10,2013-05-30 18:29:00,
2013-05-30 13:44:00,79.1,71.0,29.85,SSW,213,10.0,19.0,76,0.01,,,0.01,weatherlink.com 1.10,2013-05-30 18:44:00,
2013-05-30 13:59:00,77.5,72.0,29.83,SSW,192,7.0,16.0,83,0.01,,,0.01,weatherlink.com 1.10,2013-05-30 18:59:00,
2013-05-30 14:14:00,79.0,70.0,29.83,South,190,9.0,19.0,74,0.01,,,0.01,weatherlink.com 1.10,2013-05-30 19:14:00,
2013-05-30 14:29:00,76.9,70.0,29.82,SSW,192,13.0,18.0,80,0.01,,,0.01,weatherlink.com 1.10,2013-05-30 19:29:00,
2013-05-30 14:44:00,76.9,71.0,29.83,South,170,4.0,20.0,82,0.00,,,0.01,weatherlink.com 1.10,2013-05-30 19:44:00,
2013-05-30 14:59:00,78.6,72.0,29.81,South,184,5.0,15.0,79,0.00,,,0.01,weatherlink.com 1.10,2013-05-30 19:59:00,
2013-05-30 15:15:00,81.2,72.0,29.80,SSW,199,8.0,21.0,74,0.00,,,0.01,weatherlink.com 1.10,2013-05-30 20:15:00,
2013-05-30 15:30:00,81.8,71.0,29.79,SSW,196,11.0,19.0,70,0.00,,,0.01,weatherlink.com 1.10,2013-05-30 20:30:00,
2013-05-30 15:45:00,82.0,70.0,29.79,South,178,17.0,22.0,67,0.00,,,0.01,weatherlink.com 1.10,2013-05-30 20:45:00,
2013-05-30 16:00:00,82.8,71.0,29.78,SSW,200,7.0,23.0,67,0.00,,,0.01,weatherlink.com 1.10,2013-05-30 21:00:00,
2013-05-30 16:15:00,82.5,69.0,29.78,SSW,194,18.0,28.0,64,0.00,,,0.01,weatherlink.com 1.10,2013-05-30 21:15:00,
2013-05-30 16:30:00,83.4,70.0,29.77,SW,220,16.0,26.0,64,0.00,,,0.01,weatherlink.com 1.10,2013-05-30 21:30:00,
2013-05-30 16:45:00,84.3,70.0,29.77,SSW,211,8.0,24.0,62,0.00,,,0.01,weatherlink.com 1.10,2013-05-30 21:45:00,
2013-05-30 17:00:00,84.8,70.0,29.77,SW,216,11.0,20.0,61,0.00,,,0.01,weatherlink.com 1.10,2013-05-30 22:00:00,
2013-05-30 17:15:00,84.3,70.0,29.76,SSW,192,9.0,21.0,62,0.00,,,0.01,weatherlink.com 1.10,2013-05-30 22:15:00,
2013-05-30 17:30:00,84.6,70.0,29.75,South,175,8.0,19.0,61,0.00,,,0.01,weatherlink.com 1.10,2013-05-30 22:30:00,
2013-05-30 17:45:00,84.5,69.0,29.75,South,185,11.0,24.0,59,0.00,,,0.01,weatherlink.com 1.10,2013-05-30 22:45:00,
2013-05-30 18:00:00,81.8,70.0,29.75,South,174,9.0,24.0,67,0.00,,,0.01,weatherlink.com 1.10,2013-05-30 23:00:00,
2013-05-30 18:15:00,81.0,69.0,29.75,SSE,158,21.0,26.0,67,0.00,,,0.01,weatherlink.com 1.10,2013-05-30 23:15:00,
2013-05-30 18:30:00,78.9,68.0,29.76,SSW,198,12.0,26.0,69,0.00,,,0.01,weatherlink.com 1.10,2013-05-30 23:30:00,
2013-05-30 18:45:00,78.8,69.0,29.76,South,169,9.0,26.0,71,0.00,,,0.01,weatherlink.com 1.10,2013-05-30 23:45:00,
2013-05-30 19:00:00,79.4,69.0,29.76,SSW,195,15.0,24.0,70,0.00,,,0.01,weatherlink.com 1.10,2013-05-31 00:00:00,
2013-05-30 19:15:00,78.9,69.0,29.77,South,186,9.0,21.0,71,0.00,,,0.01,weatherlink.com 1.10,2013-05-31 00:15:00,
2013-05-30 19:30:00,78.2,68.0,29.77,South,171,12.0,20.0,72,0.00,,,0.01,weatherlink.com 1.10,2013-05-31 00:30:00,
2013-05-30 19:45:00,76.8,68.0,29.77,South,179,11.0,18.0,75,0.00,,,0.01,weatherlink.com 1.10,2013-05-31 00:45:00,
2013-05-30 20:00:00,76.1,68.0,29.78,South,181,4.0,15.0,77,0.00,,,0.01,weatherlink.com 1.10,2013-05-31 01:00:00,
2013-05-30 20:15:00,75.5,69.0,29.79,SSW,198,9.0,16.0,80,0.00,,,0.01,weatherlink.com 1.10,2013-05-31 01:15:00,
2013-05-30 20:30:00,75.2,69.0,29.78,SSE,161,13.0,15.0,80,0.00,,,0.01,weatherlink.com 1.10,2013-05-31 01:30:00,
2013-05-30 20:45:00,75.1,69.0,29.79,South,188,10.0,11.0,81,0.00,,,0.01,weatherlink.com 1.10,2013-05-31 01:45:00,
2013-05-30 21:00:00,75.4,69.0,29.78,SSW,192,12.0,14.0,81,0.00,,,0.01,weatherlink.com 1.10,2013-05-31 02:00:00,
2013-05-30 21:15:00,72.1,62.0,29.81,SW,219,3.0,34.0,70,0.00,,,0.01,weatherlink.com 1.10,2013-05-31 02:15:00,
2013-05-30 21:30:00,69.2,61.0,29.82,NW,309,10.0,13.0,75,0.00,,,0.01,weatherlink.com 1.10,2013-05-31 02:30:00,
2013-05-30 21:45:00,67.3,62.0,29.83,WNW,302,8.0,9.0,82,0.00,,,0.01,weatherlink.com 1.10,2013-05-31 02:45:00,
2013-05-30 22:00:00,65.9,61.0,29.83,WNW,284,2.0,6.0,84,0.00,,,0.01,weatherlink.com 1.10,2013-05-31 03:00:00,
2013-05-30 22:15:00,65.4,61.0,29.84,WNW,284,1.0,4.0,86,0.00,,,0.01,weatherlink.com 1.10,2013-05-31 03:15:00,
2013-05-30 22:30:00,65.6,62.0,29.89,SW,220,6.0,17.0,87,0.00,,,0.01,weatherlink.com 1.10,2013-05-31 03:30:00,
2013-05-30 22:45:00,64.3,62.0,29.88,SSW,212,6.0,8.0,91,0.00,,,0.01,weatherlink.com 1.10,2013-05-31 03:45:00,
2013-05-30 23:00:00,63.9,62.0,29.87,SSW,205,3.0,6.0,93,0.00,,,0.01,weatherlink.com 1.10,2013-05-31 04:00:00,
2013-05-30 23:15:00,63.7,62.0,29.86,SSW,205,0.0,3.0,94,0.00,,,0.01,weatherlink.com 1.10,2013-05-31 04:15:00,
2013-05-30 23:30:00,63.6,62.0,29.85,SSW,205,0.0,4.0,95,0.00,,,0.01,weatherlink.com 1.10,2013-05-31 04:30:00,
2013-05-30 23:45:00,63.4,62.0,29.83,SSW,205,0.0,0.0,95,0.00,,,0.01,weatherlink.com 1.10,2013-05-31 04:45:00,